User: anonymous   Login
Location: Unspecified
(0.0000°N, 0.0000°E)
Time: 02:58:10
(UTC+00:00)
Language:

NOSS 2-2 (D) - Orbit

View from above orbital plane
View from above orbital plane
View from above satellite
View from above satellite

Ground track
Ground track

The orbit data is extracted from the following two-line orbital elements,

1 21808U 91076D   17231.01294966 0.00000000  00000-0  00000-0 0    06
2 21808  63.3420 297.9668 0752000  25.9701 334.0299 13.41123561    01
Epoch (UTC): 19 August 2017 00:18:38
Eccentricity: 0.0752000
inclination: 63.3420°
perigee height: 542 km
apogee height: 1668 km
right ascension of ascending node: 297.9668°
argument of perigee: 25.9701°
revolutions per day: 13.41123561
mean anomaly at epoch: 334.0299°
orbit number at epoch: 0

The dashed part of the orbit path shows where the satellite is in the earth's shadow,  

DLR